Location: Dehesa de la Cepeda
(40.6574°N, 4.3013°W)
Time: 22:38:59
(UTC+00:00)

SR - Visible Passes

Search period start: 28 July 2021 00:00
Search period end: 07 August 2021 00:00
Orbit: 577 x 878 km, 66.7° (Epoch: 28 July)

Date Brightness Start Highest point End Pass type
(mag) Time Alt. Az. Time Alt. Az. Time Alt. Az.
02 Aug ? 04:38:15 10° SSE 04:42:16 19° ESE 04:46:10 10° ENE visible
04 Aug ? 04:39:10 10° S 04:44:24 35° ESE 04:49:27 10° NE visible
05 Aug ? 03:51:06 10° SSE 03:54:53 18° ESE 03:58:34 10° ENE visible
06 Aug ? 04:40:54 10° SSW 04:46:41 63° ESE 04:52:09 10° NE visible
